DW8097 Weather Reports


time (UTC)temp
C
wind
direction
speed
KPH
gust
KPH
rain 1hr
cm
rain 24hr
cm
rain mn
cm
humidity
%
barometer
mb
20260506234555 7 316 3.2 14.5 0.00 0.00 0.00 46 1014.7
20260506233052 7 320 4.8 16.1 0.00 0.00 0.00 46 1014.7
20260506231551 7 271 8.0 16.1 0.00 0.00 0.00 44 1014.8
20260506230049 7 345 8.0 14.5 0.00 0.00 0.00 44 1014.8
20260506224600 7 307 6.4 17.7 0.00 0.00 0.00 45 1015.1
20260506223045 7 5 9.7 19.3 0.00 0.00 0.00 44 1015.0
20260506221543 7 325 6.4 16.1 0.00 0.00 0.00 45 1015.0
20260506220041 7 360 12.9 20.9 0.00 0.00 0.00 44 1015.2
20260506214558 7 261 6.4 16.1 0.00 0.00 0.00 44 1015.2
20260506213043 7 262 8.0 16.1 0.00 0.00 0.00 44 1015.2
20260506211540 6 309 9.7 20.9 0.00 0.00 0.00 45 1015.4
20260506210040 7 261 6.4 20.9 0.00 0.00 0.00 44 1015.3
20260506204535 7 261 4.8 19.3 0.00 0.00 0.00 45 1015.4
20260506203005 7 325 8.0 24.1 0.00 0.00 0.00 45 1015.4
20260506201504 7 273 9.7 20.9 0.00 0.00 0.00 45 1015.5
20260506200034 6 332 9.7 19.3 0.00 0.00 0.00 45 1015.5
20260506194531 6 270 6.4 20.9 0.00 0.00 0.00 45 1015.5
20260506193029 6 33 11.3 25.7 0.00 0.00 0.00 45 1015.5
20260506191534 6 334 8.0 19.3 0.00 0.00 0.00 45 1015.6
20260506190028 6 311 8.0 25.7 0.00 0.00 0.00 46 1015.6
20260506184531 6 317 8.0 17.7 0.00 0.00 0.00 46 1015.6
20260506183031 6 319 11.3 19.3 0.00 0.00 0.00 46 1015.6
20260506183027 6 313 11.3 19.3 0.00 0.00 0.00 46 1015.6
20260506181524 6 319 8.0 20.9 0.00 0.00 0.00 47 1015.6
20260506180026 6 311 12.9 24.1 0.00 0.00 0.00 45 1015.6
20260506174521 6 297 11.3 19.3 0.00 0.00 0.00 45 1015.7
20260506173018 6 279 11.3 22.5 0.00 0.00 0.00 44 1015.7
20260506171513 6 355 16.1 24.1 0.00 0.00 0.00 43 1015.6
20260506170015 6 289 8.0 22.5 0.00 0.00 0.00 44 1015.6
20260506164508 7 302 8.0 16.1 0.00 0.00 0.00 44 1015.6
20260506163008 6 315 8.0 24.1 0.00 0.00 0.00 44 1015.6
20260506161607 6 287 9.7 22.5 0.00 0.00 0.00 45 1015.5
20260506160055 6 340 9.7 19.3 0.00 0.00 0.00 46 1015.5
20260506154612 6 340 6.4 17.7 0.00 0.00 0.00 47 1015.4
20260506153055 6 334 9.7 19.3 0.00 0.00 0.00 47 1015.3
20260506151532 6 355 4.8 17.7 0.00 0.00 0.00 49 1015.3
20260506150023 6 343 8.0 24.1 0.00 0.00 0.00 48 1015.4
20260506144522 6 355 9.7 24.1 0.00 0.00 0.00 47 1015.5
20260506143020 6 360 9.7 19.3 0.00 0.00 0.00 48 1015.4
20260506141520 6 310 8.0 19.3 0.00 0.00 0.00 50 1015.4
20260506140022 5 21 6.4 12.9 0.00 0.00 0.00 52 1015.4
20260506134513 4 318 4.8 9.7 0.00 0.00 0.00 55 1015.3
20260506133009 5 336 3.2 9.7 0.00 0.00 0.00 56 1015.2
20260506131515 5 313 1.6 6.4 0.00 0.00 0.00 57 1015.2
20260506130008 5 276 0.0 4.8 0.00 0.00 0.00 59 1015.2
20260506124502 4 32 0.0 4.8 0.00 0.00 0.00 61 1014.8
20260506123004 4 167 0.0 4.8 0.00 0.00 0.00 62 1014.7
20260506121559 3 360 0.0 3.2 0.00 0.00 0.00 64 1014.9
20260506120053 1 324 3.2 6.4 0.00 0.00 0.00 67 1014.4
20260506114557 0 355 1.6 4.8 0.00 0.00 0.00 69 1014.3
20260506113052 2 281 0.0 1.6 0.00 0.00 0.00 65 1014.1
20260506111551 1 281 0.0 0.0 0.00 0.00 0.00 70 1014.3
20260506110046 1 281 0.0 1.6 0.00 0.00 0.00 71 1014.2
20260506104545 1 281 0.0 1.6 0.00 0.00 0.00 68 1014.0
20260506103037 2 281 0.0 1.6 0.00 0.00 0.00 67 1013.8
20260506101543 1 281 0.0 3.2 0.00 0.00 0.00 67 1013.6
20260506100033 2 281 0.0 0.0 0.00 0.00 0.00 67 1013.5
20260506094557 2 288 0.0 1.6 0.00 0.00 0.00 65 1013.5
20260506093055 2 324 0.0 4.8 0.00 0.00 0.00 58 1013.5
20260506091522 2 322 0.0 6.4 0.00 0.00 0.00 60 1013.5
20260506090022 2 348 1.6 3.2 0.00 0.00 0.00 60 1013.4
20260506084527 2 355 3.2 6.4 0.00 0.00 0.00 61 1013.4
20260506083014 2 327 4.8 9.7 0.00 0.00 0.00 60 1013.5
20260506081510 2 16 3.2 8.0 0.00 0.00 0.00 61 1013.2
20260506073028 3 14 6.4 11.3 0.00 0.00 0.00 61 1012.9
20260506071521 3 332 4.8 11.3 0.00 0.00 0.00 61 1012.7
20260506061606 4 331 4.8 9.7 0.00 0.00 0.00 56 1012.2
20260506044531 5 349 4.8 12.9 0.00 0.00 0.00 52 1011.7
20260506043027 6 351 8.0 14.5 0.00 0.00 0.00 51 1011.7
20260506041523 6 317 8.0 12.9 0.00 0.00 0.00 51 1011.4
20260506040029 6 360 8.0 16.1 0.00 0.00 0.00 49 1011.3
20260506034510 7 5 6.4 19.3 0.00 0.00 0.00 47 1011.2
20260506033003 7 360 6.4 14.5 0.00 0.00 0.00 45 1011.0
20260506031558 7 323 3.2 9.7 0.00 0.00 0.00 44 1011.0
20260506030049 7 314 3.2 8.0 0.00 0.00 0.00 43 1011.0
20260506024548 8 324 3.2 6.4 0.00 0.00 0.00 43 1010.8
20260506023054 8 335 3.2 8.0 0.00 0.00 0.00 41 1010.5
20260506021547 8 283 1.6 8.0 0.00 0.00 0.00 42 1010.3
20260506020040 8 309 3.2 8.0 0.00 0.00 0.00 41 1010.2
20260506014539 8 330 3.2 8.0 0.00 0.00 0.00 40 1010.0
20260506013034 8 292 8.0 12.9 0.00 0.00 0.00 39 1009.8
20260506011535 9 326 9.7 16.1 0.00 0.00 0.00 40 1009.7
20260506010045 9 360 6.4 14.5 0.00 0.00 0.00 40 1009.7
20260506004634 9 346 9.7 17.7 0.00 0.00 0.00 39 1009.5
20260506003030 9 327 4.8 16.1 0.00 0.00 0.00 39 1009.4
20260506001529 10 348 8.0 17.7 0.00 0.00 0.00 38 1009.3
20260506000010 10 355 9.7 16.1 0.00 0.00 0.00 37 1009.2